Regional Weather Roundup
Issued by NWS Albany, NY

Home | Current Version | Previous Version | Graphics & Text | Print | Product List | Glossary On
Versions: 1 2 3 4 5 6 7 8 9 10 11 12 13 14 15 16 17 18 19 20 21 22 23 24 25 26 27 28 29 30 31 32 33 34 35 36 37 38 39 40 41 42 43 44 45 46 47 48 49 50
000
ASUS41 KALY 241910
RWRALY

NEW YORK STATE HOURLY WEATHER ROUNDUP
NATIONAL WEATHER SERVICE ALBANY NY
200 PM EST SAT JAN 24 2015

NOTE: "FAIR" INDICATES FEW OR NO CLOUDS BELOW 12,000 FEET WITH NO
SIGNIFICANT WEATHER AND/OR NO OBSTRUCTIONS TO VISIBILITY.

NYZ032-033-038>043-046>054-057>066-NYZ062>081-242000-
EAST


CITY           SKY/WX    TMP DP  RH WIND       PRES   REMARKS
ALBANY         LGT SNOW  32  27  81 NW6       29.37F WCI  26
GLENS FALLS    PTSUNNY   31  25  78 CALM      29.37F HAZE
POUGHKEEPSIE   CLOUDY    35  31  85 N3        29.34F FOG
NEWBURGH       CLOUDY    34  32  93 N7        29.34F FOG     WCI  28
MONTGOMERY     CLOUDY    35  31  85 N5        29.33F WCI  31
WHITE PLAINS   CLOUDY    35  32  88 NW13      29.28F WCI  26
ISLIP          DRIZZLE   35  33  92 N10       29.25F FOG     WCI  27
NEW YORK CITY  CLOUDY    37  32  82 N17       29.30F HAZE    WCI  27
CENTRAL PARK   CLOUDY    36  32  85 N13G20    29.33F FOG     WCI  27
$$

NYZ005>009-017-018-044>046-055-056-242000-
CENTRAL


CITY           SKY/WX    TMP DP  RH WIND       PRES   REMARKS
FULTON         CLOUDY    29  22  75 W7        29.47F WCI  22
SYRACUSE       CLOUDY    29  23  78 NW13      29.45F WCI  19
ROME           MOSUNNY   35  23  61 CALM      29.44F
ELMIRA         SUNNY     39  21  48 NW13      29.41F WCI  31
BINGHAMTON     PTSUNNY   34  25  69 NW7       29.35F WCI  28
MONTICELLO     CLOUDY    34  30  86 NW8       29.33S WCI  27
$$

NYZ026>034-041>043-242000-
NORTH


CITY           SKY/WX    TMP DP  RH WIND       PRES   REMARKS
WATERTOWN      CLOUDY    31  24  75 W9        29.46F WCI  23
FORT DRUM      NOT AVBL
MASSENA        CLOUDY    31  26  82 SW12      29.45F WCI  22
SARANAC LAKE   SUNNY     32  17  54 SW6       29.32F WCI  26
PLATTSBURGH    PTSUNNY   33  21  61 SE5       29.41F WCI  29
$$

NYZ001>004-010>016-019>021-242000-
WEST


CITY           SKY/WX    TMP DP  RH WIND       PRES   REMARKS
NIAGARA FALLS  CLOUDY    29  25  85 SW15      29.49F FOG     WCI  18
BUFFALO        LGT SNOW  28  25  88 SW18      29.49F FOG     WCI  15
DUNKIRK        LGT SNOW  28  26  92 SW15G22   29.53F FOG     WCI  16
JAMESTOWN      CLOUDY    25  21  86 W9        29.48S WCI  15
WELLSVILLE     SUNNY     27  17  66 NW22      29.43R WCI  13
ROCHESTER      CLOUDY    30  23  75 W16       29.48F WCI  19
PENN YAN       MOSUNNY   32  21  64 NW12      29.45F WCI  23
$$

             KEY
       WCI = WIND CHILL INDEX
       VSB = VISIBILITY
       HX  = HEAT INDEX
$$


USA.gov is the U.S. government's official web portal to all federal, state and local government web resources and services.